Regional Weather Roundup
Issued by NWS

Home | Current Version | Previous Version | Text Only | Print | Product List | Glossary On
Versions: 1 2 3 4 5 6 7 8 9 10 11 12 13 14 15 16 17 18 19 20 21 22 23 24 25 26 27 28 29 30 31 32 33 34 35 36 37 38 39 40 41 42 43 44 45 46 47 48 49 50
535
ASUS44 KJAN 300810
RWRMS

MISSISSIPPI HOURLY WEATHER ROUNDUP
NATIONAL WEATHER SERVICE JACKSON MS
300 AM CDT THU MAR 30 2017

NOTE: "FAIR: INDICATES FEW OR NO CLOUDS BELOW 12,000 FEET WITH NO
SIGNIFICANT WEATHER AND/OR OBSTRUCTIONS TO VISIBILITY.

MSZ001>002-007>008-010>013-018>021-025>028-034>036-300900-
NORTHWEST MISSISSIPPI

CITY           SKY/WX    TMP DP  RH WIND       PRES   REMARKS
BATESVILLE     LGT RAIN  64  59  83 SE13G21   29.75F
CLEVELAND      CLOUDY    67  62  83 S15G22    29.77S
GREENWOOD      RAIN      65  61  87 SE25G32   29.82F
GREENVILLE     CLOUDY    66  58  75 S14       29.76F
OXFORD         FAIR      64  57  77 S15G25    29.84R
TUNICA         CLOUDY    66  61  82 S16G22    29.74F
WINONA         RAIN      63  62  94 SW20G28   29.89S
$$

MSZ003>006-009-014>017-022>024-029>033-037>039-300900-
NORTHEAST MISSISSIPPI

CITY           SKY/WX    TMP DP  RH WIND       PRES   REMARKS
COLUMBUS AFB   CLOUDY    69  62  77 S12       29.86S
CORINTH        PTSUNNY   70  59  68 S8G15     29.80S
GOLDN TRIANGLE CLOUDY   N/A N/A N/A S12       29.83S
STARKVILLE     CLOUDY    68  63  83 S10       29.89S
TUPELO         CLOUDY    70  59  68 S13       29.84R
$$

MSZ040-058-300900-
CENTRAL MISSISSIPPI

CITY           SKY/WX    TMP DP  RH WIND       PRES   REMARKS
JACKSON INTL   HVY RAIN  63  61  93 S5        29.90F FOG
JACKSON HAWKNS RAIN      63  60  90 SE9       29.91F FOG
MADISON        CLOUDY    61  59  94 CALM      29.91F
MERIDIAN KEY   MOCLDY    69  66  90 S13       29.90F
MERIDIAN NAS   CLOUDY    70  62  76 SW3       29.90F
RAYMOND        RAIN      63  61  94 SE16      29.88F
VICKSBURG VKS    N/A     64  61  88 SE8G15    29.80F
$$

MSZ059>079-300900-
SOUTH MISSISSIPPI

CITY           SKY/WX    TMP DP  RH WIND       PRES   REMARKS
BROOKHAVEN     RAIN      63  61  94 N7        29.88S
COLUMBIA       CLOUDY    70 -38   1 CALM      29.90F
HATTIESBURG    CLOUDY    69  66  90 SE8       29.89F
MCCOMB         CLOUDY    64  60  87 NE5       29.86F
NATCHEZ        NOT AVBL
PINE BELT      CLOUDY    70  64  83 S6        29.90F
$$

MSZ080>082-300900-
COASTAL MISSISSIPPI

CITY           SKY/WX    TMP DP  RH WIND       PRES   REMARKS
BILOXI         PTCLDY    73  69  85 S14       29.89F
PASCAGOULA     CLOUDY    72  67  84 S5        29.90F
GULFPORT       CLOUDY    74  69  85 S8        29.89F
$$

LAZ007>009-015>016-023>026-300900-
NORTHEAST LOUISIANA

CITY           SKY/WX    TMP DP  RH WIND       PRES   REMARKS
BASTROP        CLOUDY    65  64  99 S3        29.79S
TALLULAH/VBURG CLOUDY    65  59  81 S12G23    29.82R
VIDALIA        LGT RAIN  65  64  94 S9        29.80F
$$




USA.gov is the U.S. government's official web portal to all federal, state and local government web resources and services.